FW1790 Weather Reports


time (UTC)temp
C
wind
direction
speed
KPH
gust
KPH
rain 1hr
cm
rain 24hr
cm
rain mn
cm
humidity
%
barometer
mb
20260508223722 24 3 8.0 14.5 0.00 0.00 0.00 21 1015.0
20260508223220 23 7 16.1 20.9 0.00 0.00 0.00 20 1015.0
20260508222720 23 29 14.5 17.7 0.00 0.00 0.00 21 1015.0
20260508222220 23 13 14.5 20.9 0.00 0.00 0.00 21 1015.0
20260508221721 23 4 19.3 29.0 0.00 0.00 0.00 21 1015.0
20260508221220 23 8 19.3 24.1 0.00 0.00 0.00 20 1015.0
20260508220721 23 3 14.5 20.9 0.00 0.00 0.00 20 1015.0
20260508220220 23 1 12.9 20.9 0.00 0.00 0.00 21 1015.0
20260508215720 23 9 16.1 25.7 0.00 0.00 0.00 21 1015.0
20260508215221 23 34 11.3 16.1 0.00 0.00 0.00 21 1015.0
20260508214720 23 18 12.9 19.3 0.00 0.00 0.00 22 1015.0
20260508214220 23 10 24.1 32.2 0.00 0.00 0.00 21 1015.0
20260508213721 23 24 17.7 24.1 0.00 0.00 0.00 21 1015.0
20260508213220 23 23 14.5 25.7 0.00 0.00 0.00 22 1015.0
20260508212721 23 14 12.9 22.5 0.00 0.00 0.00 22 1015.0
20260508212220 23 30 16.1 19.3 0.00 0.00 0.00 22 1015.0
20260508211720 23 11 12.9 20.9 0.00 0.00 0.00 22 1015.0
20260508211221 23 17 14.5 20.9 0.00 0.00 0.00 21 1015.0
20260508210721 23 16 14.5 22.5 0.00 0.00 0.00 22 1015.0
20260508210220 23 60 11.3 19.3 0.00 0.00 0.00 22 1015.0
20260508205720 23 19 22.5 29.0 0.00 0.00 0.00 22 1016.0
20260508205221 22 7 11.3 24.1 0.00 0.00 0.00 22 1016.0
20260508204720 23 23 11.3 14.5 0.00 0.00 0.00 22 1015.0
20260508204220 22 18 19.3 27.4 0.00 0.00 0.00 22 1016.0
20260508203720 23 4 14.5 24.1 0.00 0.00 0.00 21 1016.0
20260508203220 23 354 12.9 20.9 0.00 0.00 0.00 22 1016.0
20260508202720 23 0 14.5 24.1 0.00 0.00 0.00 22 1016.0
20260508202220 23 10 19.3 32.2 0.00 0.00 0.00 22 1016.0
20260508201720 23 345 14.5 25.7 0.00 0.00 0.00 22 1016.0
20260508201221 22 342 12.9 25.7 0.00 0.00 0.00 22 1016.0
20260508200720 22 358 16.1 22.5 0.00 0.00 0.00 23 1016.0
20260508200221 22 10 20.9 29.0 0.00 0.00 0.00 22 1016.0
20260508195720 23 355 14.5 25.7 0.00 0.00 0.00 23 1016.0
20260508195220 23 1 8.0 16.1 0.00 0.00 0.00 23 1016.0
20260508194720 22 4 16.1 22.5 0.00 0.00 0.00 22 1016.0
20260508194220 22 0 9.7 17.7 0.00 0.00 0.00 23 1016.0
20260508193720 22 14 16.1 25.7 0.00 0.00 0.00 23 1016.0
20260508193221 22 4 17.7 24.1 0.00 0.00 0.00 22 1016.0
20260508192720 22 4 19.3 24.1 0.00 0.00 0.00 23 1016.0
20260508192220 22 20 17.7 27.4 0.00 0.00 0.00 23 1016.0
20260508191721 22 6 17.7 25.7 0.00 0.00 0.00 23 1016.0
20260508191221 22 5 19.3 25.7 0.00 0.00 0.00 22 1016.0
20260508190720 23 2 11.3 17.7 0.00 0.00 0.00 23 1016.0
20260508190220 23 348 11.3 22.5 0.00 0.00 0.00 22 1016.0
20260508185720 23 340 14.5 20.9 0.00 0.00 0.00 23 1016.0
20260508185222 23 347 12.9 17.7 0.00 0.00 0.00 23 1016.0
20260508184247 23 351 17.7 25.7 0.00 0.00 0.00 23 1016.0
20260508183720 23 345 6.4 9.7 0.00 0.00 0.00 24 1016.0
20260508183222 23 296 4.8 11.3 0.00 0.00 0.00 24 1016.0
20260508182721 22 27 6.4 14.5 0.00 0.00 0.00 25 1016.0
20260508182220 22 349 9.7 19.3 0.00 0.00 0.00 24 1016.0
20260508181721 22 20 11.3 14.5 0.00 0.00 0.00 25 1016.0
20260508181221 22 76 3.2 6.4 0.00 0.00 0.00 26 1016.0
20260508180720 22 13 9.7 14.5 0.00 0.00 0.00 26 1017.0
20260508180221 22 9 16.1 22.5 0.00 0.00 0.00 27 1017.0
20260508175720 22 1 16.1 24.1 0.00 0.00 0.00 28 1016.0
20260508175221 21 347 4.8 9.7 0.00 0.00 0.00 30 1017.0
20260508174722 21 15 14.5 16.1 0.00 0.00 0.00 30 1017.0
20260508174222 21 52 6.4 12.9 0.00 0.00 0.00 30 1017.0
20260508173720 21 13 12.9 20.9 0.00 0.00 0.00 30 1017.0
20260508173221 21 19 9.7 12.9 0.00 0.00 0.00 31 1017.0
20260508172723 21 28 12.9 16.1 0.00 0.00 0.00 32 1017.0
20260508172222 21 359 9.7 12.9 0.00 0.00 0.00 30 1017.0
20260508171722 21 352 9.7 17.7 0.00 0.00 0.00 30 1017.0
20260508171220 21 19 6.4 11.3 0.00 0.00 0.00 30 1017.0
20260508170723 21 359 9.7 14.5 0.00 0.00 0.00 29 1017.0
20260508170221 21 31 11.3 16.1 0.00 0.00 0.00 29 1017.0
20260508165724 21 47 8.0 14.5 0.00 0.00 0.00 30 1016.0
20260508165223 21 359 8.0 14.5 0.00 0.00 0.00 29 1016.0
20260508164721 21 352 4.8 6.4 0.00 0.00 0.00 29 1017.0
20260508164223 21 58 4.8 8.0 0.00 0.00 0.00 31 1016.0
20260508163720 20 43 6.4 8.0 0.00 0.00 0.00 31 1016.0
20260508163223 20 28 8.0 11.3 0.00 0.00 0.00 30 1016.0
20260508162721 20 58 9.7 11.3 0.00 0.00 0.00 31 1016.0
20260508162224 21 350 1.6 6.4 0.00 0.00 0.00 33 1016.0
20260508161722 20 54 3.2 6.4 0.00 0.00 0.00 35 1016.0
20260508161222 20 341 1.6 6.4 0.00 0.00 0.00 36 1016.0
20260508160723 20 97 4.8 4.8 0.00 0.00 0.00 36 1016.0
20260508160221 20 98 1.6 6.4 0.00 0.00 0.00 35 1016.0
20260508155231 19 59 0.0 3.2 0.00 0.00 0.00 37 1016.0
20260508154724 19 51 1.6 3.2 0.00 0.00 0.00 38 1016.0
20260508154222 19 129 3.2 4.8 0.00 0.00 0.00 38 1016.0
20260508153720 19 153 1.6 6.4 0.00 0.00 0.00 39 1016.0
20260508153222 18 135 1.6 4.8 0.00 0.00 0.00 40 1016.0
20260508152722 18 147 4.8 6.4 0.00 0.00 0.00 41 1016.0
20260508152224 18 128 1.6 6.4 0.00 0.00 0.00 42 1016.0
20260508151721 17 143 4.8 6.4 0.00 0.00 0.00 43 1016.0
20260508151221 17 162 6.4 9.7 0.00 0.00 0.00 45 1016.0
20260508150720 17 149 4.8 8.0 0.00 0.00 0.00 45 1016.0
20260508150221 17 162 4.8 6.4 0.00 0.00 0.00 45 1016.0
20260508145721 17 130 6.4 9.7 0.00 0.00 0.00 45 1016.0
20260508145221 17 164 3.2 6.4 0.00 0.00 0.00 47 1016.0
20260508144720 16 130 3.2 6.4 0.00 0.00 0.00 48 1016.0
20260508144220 16 130 6.4 8.0 0.00 0.00 0.00 49 1016.0
20260508143721 16 140 3.2 6.4 0.00 0.00 0.00 51 1016.0
20260508143221 16 125 3.2 9.7 0.00 0.00 0.00 50 1016.0
20260508142721 16 163 1.6 4.8 0.00 0.00 0.00 52 1016.0
20260508142220 15 144 4.8 8.0 0.00 0.00 0.00 51 1016.0
20260508141720 15 156 3.2 6.4 0.00 0.00 0.00 52 1016.0
20260508141221 15 173 1.6 4.8 0.00 0.00 0.00 51 1016.0
20260508140720 15 168 1.6 4.8 0.00 0.00 0.00 51 1016.0
20260508140222 14 210 1.6 3.2 0.00 0.00 0.00 52 1016.0
20260508135720 13 201 3.2 4.8 0.00 0.00 0.00 52 1016.0
20260508135221 13 205 4.8 6.4 0.00 0.00 0.00 52 1016.0
20260508134721 13 208 3.2 4.8 0.00 0.00 0.00 52 1016.0
20260508134221 12 213 3.2 4.8 0.00 0.00 0.00 51 1016.0
20260508133721 12 236 0.0 1.6 0.00 0.00 0.00 51 1016.0
20260508133221 11 250 1.6 3.2 0.00 0.00 0.00 53 1016.0
20260508132720 11 246 3.2 3.2 0.00 0.00 0.00 53 1016.0
20260508132220 11 258 4.8 4.8 0.00 0.00 0.00 53 1016.0
20260508131728 11 246 3.2 4.8 0.00 0.00 0.00 52 1016.0
20260508131221 11 248 4.8 6.4 0.00 0.00 0.00 53 1016.0
20260508130723 10 240 3.2 4.8 0.00 0.00 0.00 53 1016.0
20260508130221 10 269 4.8 4.8 0.00 0.00 0.00 54 1016.0
20260508125721 10 263 4.8 4.8 0.00 0.00 0.00 56 1016.0
20260508125221 10 256 4.8 4.8 0.00 0.00 0.00 55 1016.0
20260508124721 10 292 4.8 4.8 0.00 0.00 0.00 56 1016.0
20260508124220 10 260 4.8 4.8 0.00 0.00 0.00 56 1016.0
20260508123720 10 262 4.8 4.8 0.00 0.00 0.00 55 1016.0
20260508123220 10 266 3.2 3.2 0.00 0.00 0.00 55 1016.0
20260508122720 10 259 3.2 3.2 0.00 0.00 0.00 55 1016.0
20260508122221 10 264 4.8 4.8 0.00 0.00 0.00 57 1016.0
20260508121720 10 264 4.8 4.8 0.00 0.00 0.00 57 1016.0
20260508121220 10 260 3.2 4.8 0.00 0.00 0.00 56 1016.0
20260508120720 10 244 3.2 4.8 0.00 0.00 0.00 58 1016.0
20260508120220 10 237 1.6 3.2 0.00 0.00 0.00 58 1016.0
20260508115720 10 228 3.2 4.8 0.00 0.00 0.00 58 1016.0
20260508115220 10 213 3.2 3.2 0.00 0.00 0.00 60 1016.0
20260508114722 10 141 0.0 1.6 0.00 0.00 0.00 60 1016.0
20260508114220 10 188 0.0 1.6 0.00 0.00 0.00 58 1016.0
20260508113720 10 219 4.8 6.4 0.00 0.00 0.00 58 1015.0
20260508113221 10 231 6.4 6.4 0.00 0.00 0.00 58 1015.0
20260508112723 10 245 4.8 6.4 0.00 0.00 0.00 58 1015.0
20260508112221 10 271 1.6 3.2 0.00 0.00 0.00 58 1016.0
20260508111721 10 284 0.0 1.6 0.00 0.00 0.00 58 1016.0
20260508111221 10 0 0.0 0.0 0.00 0.00 0.00 57 1016.0
20260508110720 10 0 0.0 0.0 0.00 0.00 0.00 57 1016.0
20260508110221 10 239 1.6 3.2 0.00 0.00 0.00 57 1015.0
20260508105722 10 0 0.0 0.0 0.00 0.00 0.00 55 1015.0
20260508105220 11 208 0.0 3.2 0.00 0.00 0.00 55 1015.0
20260508104720 11 258 3.2 4.8 0.00 0.00 0.00 53 1015.0
20260508104221 11 264 4.8 4.8 0.00 0.00 0.00 54 1015.0
20260508103720 11 277 4.8 4.8 0.00 0.00 0.00 54 1015.0
20260508103220 11 264 6.4 8.0 0.00 0.00 0.00 53 1015.0
20260508102724 11 251 4.8 6.4 0.00 0.00 0.00 54 1015.0
20260508102222 11 266 6.4 8.0 0.00 0.00 0.00 54 1015.0
20260508101720 11 276 4.8 6.4 0.00 0.00 0.00 53 1015.0
20260508101224 11 258 4.8 6.4 0.00 0.00 0.00 52 1015.0
20260508100722 11 258 6.4 6.4 0.00 0.00 0.00 56 1015.0
20260508100223 11 258 6.4 6.4 0.00 0.00 0.00 55 1015.0
20260508095722 11 231 3.2 3.2 0.00 0.00 0.00 55 1015.0
20260508095220 11 230 1.6 3.2 0.00 0.00 0.00 57 1015.0
20260508094721 11 230 4.8 4.8 0.00 0.00 0.00 56 1015.0
20260508094220 11 243 4.8 4.8 0.00 0.00 0.00 58 1015.0
20260508093720 11 263 3.2 4.8 0.00 0.00 0.00 54 1015.0
20260508093221 11 262 4.8 6.4 0.00 0.00 0.00 54 1015.0
20260508092720 11 249 6.4 8.0 0.00 0.00 0.00 54 1015.0
20260508092221 12 243 4.8 6.4 0.00 0.00 0.00 51 1015.0
20260508091720 11 194 3.2 4.8 0.00 0.00 0.00 50 1015.0
20260508091220 11 235 3.2 4.8 0.00 0.00 0.00 51 1015.0
20260508090720 11 207 1.6 3.2 0.00 0.00 0.00 54 1015.0
20260508090222 11 226 3.2 4.8 0.00 0.00 0.00 54 1015.0
20260508085720 11 247 3.2 3.2 0.00 0.00 0.00 54 1015.0
20260508084819 11 331 0.0 3.2 0.00 0.00 0.00 52 1015.0
20260508084220 12 339 3.2 4.8 0.00 0.00 0.00 51 1015.0
20260508083721 12 0 0.0 0.0 0.00 0.00 0.00 51 1015.0
20260508083220 12 64 0.0 3.2 0.00 0.00 0.00 51 1015.0
20260508082720 12 23 1.6 3.2 0.00 0.00 0.00 51 1015.0
20260508082221 12 0 0.0 0.0 0.00 0.00 0.00 49 1015.0
20260508081721 12 88 3.2 6.4 0.00 0.00 0.00 48 1015.0
20260508081220 13 255 4.8 6.4 0.00 0.00 0.00 47 1015.0
20260508080720 13 256 6.4 9.7 0.00 0.00 0.00 47 1015.0
20260508080220 13 259 8.0 9.7 0.00 0.00 0.00 46 1015.0
20260508075720 12 258 8.0 9.7 0.00 0.00 0.00 47 1015.0
20260508075220 12 264 6.4 6.4 0.00 0.00 0.00 47 1015.0
20260508074720 12 261 6.4 8.0 0.00 0.00 0.00 48 1015.0
20260508074221 12 263 8.0 9.7 0.00 0.00 0.00 48 1015.0
20260508073721 13 254 6.4 8.0 0.00 0.00 0.00 47 1015.0
20260508073221 13 244 4.8 4.8 0.00 0.00 0.00 48 1015.0
20260508072721 13 238 4.8 4.8 0.00 0.00 0.00 47 1015.0
20260508072221 13 236 6.4 8.0 0.00 0.00 0.00 47 1015.0
20260508071722 13 238 4.8 6.4 0.00 0.00 0.00 45 1015.0
20260508071220 13 235 3.2 4.8 0.00 0.00 0.00 46 1015.0
20260508070724 13 239 3.2 4.8 0.00 0.00 0.00 45 1015.0
20260508070220 13 247 6.4 8.0 0.00 0.00 0.00 45 1015.0
20260508065721 13 248 6.4 8.0 0.00 0.00 0.00 46 1015.0
20260508065220 14 239 6.4 8.0 0.00 0.00 0.00 45 1015.0
20260508064720 15 247 3.2 4.8 0.00 0.00 0.00 43 1015.0
20260508064221 15 229 6.4 9.7 0.00 0.00 0.00 41 1015.0
20260508063722 15 232 6.4 6.4 0.00 0.00 0.00 40 1015.0
20260508063220 15 275 3.2 4.8 0.00 0.00 0.00 40 1015.0
20260508062720 15 284 4.8 6.4 0.00 0.00 0.00 39 1015.0
20260508062220 14 301 4.8 8.0 0.00 0.00 0.00 41 1015.0
20260508061720 14 345 3.2 6.4 0.00 0.00 0.00 44 1015.0
20260508061225 14 353 6.4 8.0 0.00 0.00 0.00 43 1015.0
20260508060721 15 304 1.6 1.6 0.00 0.00 0.00 41 1015.0
20260508060221 15 290 3.2 3.2 0.00 0.00 0.00 41 1015.0
20260508055720 15 0 0.0 0.0 0.00 0.00 0.00 39 1015.0
20260508055220 15 237 4.8 4.8 0.00 0.00 0.00 39 1014.0
20260508054721 15 264 6.4 6.4 0.00 0.00 0.00 40 1014.0
20260508054221 15 266 6.4 6.4 0.00 0.00 0.00 41 1014.0
20260508053720 15 270 6.4 8.0 0.00 0.00 0.00 43 1014.0
20260508053221 15 275 3.2 3.2 0.00 0.00 0.00 43 1014.0
20260508052720 15 280 3.2 4.8 0.00 0.00 0.00 42 1014.0
20260508052220 15 276 4.8 6.4 0.00 0.00 0.00 41 1014.0
20260508051728 15 253 1.6 3.2 0.00 0.00 0.00 43 1015.0
20260508051220 15 128 3.2 4.8 0.00 0.00 0.00 42 1014.0
20260508050721 15 132 3.2 3.2 0.00 0.00 0.00 42 1014.0
20260508050221 15 166 3.2 4.8 0.00 0.00 0.00 41 1014.0
20260508045720 15 261 9.7 11.3 0.00 0.00 0.00 40 1014.0
20260508044750 16 263 9.7 11.3 0.00 0.00 0.00 39 1014.0
20260508044220 16 266 8.0 9.7 0.00 0.00 0.00 39 1014.0
20260508043720 16 261 8.0 11.3 0.00 0.00 0.00 39 1014.0
20260508043221 16 265 9.7 12.9 0.00 0.00 0.00 39 1014.0
20260508042722 16 264 6.4 8.0 0.00 0.00 0.00 39 1014.0
20260508042220 16 263 8.0 9.7 0.00 0.00 0.00 39 1014.0
20260508041721 16 271 9.7 9.7 0.00 0.00 0.00 39 1014.0
20260508041220 16 265 8.0 9.7 0.00 0.00 0.00 39 1014.0
20260508040721 17 271 8.0 11.3 0.00 0.00 0.00 38 1014.0
20260508040222 17 268 8.0 8.0 0.00 0.00 0.00 38 1014.0
20260508035720 17 267 4.8 6.4 0.00 0.00 0.00 37 1014.0
20260508035220 17 261 6.4 8.0 0.00 0.00 0.00 37 1014.0
20260508034721 17 262 8.0 9.7 0.00 0.00 0.00 37 1014.0
20260508034220 17 258 8.0 9.7 0.00 0.00 0.00 37 1014.0
20260508033720 17 265 9.7 11.3 0.00 0.00 0.00 37 1014.0
20260508033220 18 264 9.7 12.9 0.00 0.00 0.00 37 1014.0
20260508032720 18 270 9.7 12.9 0.00 0.00 0.00 36 1014.0
20260508032221 18 271 8.0 9.7 0.00 0.00 0.00 35 1014.0
20260508031720 18 260 8.0 9.7 0.00 0.00 0.00 35 1014.0
20260508031221 18 255 8.0 9.7 0.00 0.00 0.00 34 1014.0
20260508030721 18 256 6.4 8.0 0.00 0.00 0.00 34 1014.0
20260508030220 19 265 4.8 6.4 0.00 0.00 0.00 33 1014.0
20260508025721 20 266 4.8 4.8 0.00 0.00 0.00 32 1014.0
20260508025220 20 273 3.2 4.8 0.00 0.00 0.00 30 1014.0
20260508024720 21 284 3.2 3.2 0.00 0.00 0.00 28 1013.0
20260508024220 21 268 1.6 3.2 0.00 0.00 0.00 27 1013.0
20260508023721 21 264 1.6 3.2 0.00 0.00 0.00 28 1013.0
20260508023223 21 258 0.0 3.2 0.00 0.00 0.00 28 1014.0
20260508022720 21 260 1.6 3.2 0.00 0.00 0.00 27 1014.0
20260508022220 22 271 1.6 3.2 0.00 0.00 0.00 27 1014.0
20260508021721 22 0 0.0 0.0 0.00 0.00 0.00 25 1014.0
20260508021220 22 0 0.0 0.0 0.00 0.00 0.00 25 1013.0
20260508020720 22 0 0.0 0.0 0.00 0.00 0.00 25 1013.0
20260508020221 22 115 0.0 1.6 0.00 0.00 0.00 25 1013.0
20260508015721 22 0 0.0 0.0 0.00 0.00 0.00 25 1013.0
20260508015220 22 94 1.6 3.2 0.00 0.00 0.00 24 1013.0
20260508014721 22 96 0.0 3.2 0.00 0.00 0.00 24 1013.0
20260508014220 22 66 0.0 3.2 0.00 0.00 0.00 24 1013.0
20260508013721 22 93 6.4 6.4 0.00 0.00 0.00 24 1013.0
20260508013220 23 94 4.8 8.0 0.00 0.00 0.00 24 1013.0
20260508012720 23 80 6.4 9.7 0.00 0.00 0.00 24 1013.0
20260508012220 23 65 1.6 3.2 0.00 0.00 0.00 24 1013.0
20260508011720 23 81 3.2 4.8 0.00 0.00 0.00 24 1013.0
20260508011221 23 112 6.4 8.0 0.00 0.00 0.00 23 1013.0
20260508010721 23 141 0.0 3.2 0.00 0.00 0.00 24 1013.0
20260508010220 23 109 3.2 4.8 0.00 0.00 0.00 24 1013.0
20260508005721 22 104 4.8 6.4 0.00 0.00 0.00 24 1013.0
20260508005221 22 77 1.6 6.4 0.00 0.00 0.00 25 1013.0
20260508004720 22 97 1.6 4.8 0.00 0.00 0.00 24 1014.0
20260508004221 22 326 0.0 1.6 0.00 0.00 0.00 24 1013.0
20260508003720 22 0 0.0 0.0 0.00 0.00 0.00 24 1013.0
20260508003221 22 71 4.8 6.4 0.00 0.00 0.00 24 1013.0
20260508002721 22 79 4.8 6.4 0.00 0.00 0.00 24 1013.0
20260508002220 22 0 0.0 0.0 0.00 0.00 0.00 24 1014.0
20260508001726 22 77 6.4 9.7 0.00 0.00 0.00 24 1014.0
20260508001221 22 352 1.6 3.2 0.00 0.00 0.00 24 1014.0
20260508000721 23 81 6.4 8.0 0.00 0.00 0.00 24 1014.0
20260508000220 23 78 4.8 6.4 0.00 0.00 0.00 25 1014.0
20260507235720 23 44 0.0 1.6 0.00 0.00 0.00 24 1014.0
20260507235221 23 62 8.0 11.3 0.00 0.00 0.00 24 1014.0
20260507234721 23 36 6.4 9.7 0.00 0.00 0.00 24 1014.0
20260507234220 23 3 6.4 12.9 0.00 0.00 0.00 23 1014.0
20260507233721 23 15 4.8 9.7 0.00 0.00 0.00 24 1014.0
20260507233220 23 14 9.7 16.1 0.00 0.00 0.00 23 1013.0
20260507232720 23 12 9.7 14.5 0.00 0.00 0.00 23 1013.0
20260507232220 23 16 6.4 11.3 0.00 0.00 0.00 24 1014.0
20260507231721 22 59 6.4 9.7 0.00 0.00 0.00 25 1014.0
20260507231220 23 28 6.4 12.9 0.00 0.00 0.00 24 1014.0
20260507230721 23 39 11.3 17.7 0.00 0.00 0.00 24 1014.0
20260507230221 23 40 11.3 16.1 0.00 0.00 0.00 24 1014.0
20260507225720 23 0 6.4 8.0 0.00 0.00 0.00 23 1014.0
20260507225220 23 348 6.4 14.5 0.00 0.00 0.00 23 1014.0
20260507224720 23 352 9.7 14.5 0.00 0.00 0.00 23 1014.0
20260507224220 23 8 9.7 14.5 0.00 0.00 0.00 24 1014.0